[[{"header":{"parameterUnit":"m.s-1","parameterCategory":1,"la1":30.2991,"la2":30.254,"lo1":-89.0895,"lo2":-89.0444,"dy":0.0017,"dx":0.0017,"nx":28,"ny":28,"refTime":"2025-11-07T03:00:00:Z","depth":0,"parameterNumber":2,"parameterNumberName":"U-component_of_WINDS"},"data":[0,0,0,0,0,0,0,0,0,0,0,0,0,0,0,0,0,0,0,0,0,0,0,0,0,0,0,0,0,0,0,0,0,0,0,0,0,0,0,0,0,0,0,0,0,0,0,0,0,0,0,0,0,0,0,0,0,0,-2.346,-2.3459,0,-2.3419,-2.3419,-2.3418,-2.3376,-2.3376,-2.3375,-2.3375,-2.3333,-2.3333,-2.3332,0,0,0,0,0,0,0,0,0,0,0,0,0,-2.3506,-2.3505,-2.346,-2.3459,-2.3459,-2.3419,-2.3419,-2.3418,-2.3376,-2.3376,-2.3375,-2.3374,-2.3333,-2.3333,-2.3332,0,0,0,0,0,0,0,0,0,0,0,0,0,-2.3478,-2.3505,-2.346,-2.3433,-2.3431,-2.3419,-2.3419,-2.3418,-2.3377,-2.3376,-2.3375,-2.3374,-2.3334,-2.3333,-2.3332,-2.3344,0,0,-2.3329,-2.3329,0,0,0,0,0,0,0,0,-2.3479,-2.3476,-2.3438,-2.3435,-2.3432,-2.3402,-2.342,-2.3393,-2.3377,-2.3397,-2.3375,-2.3374,-2.3357,-2.3354,-2.3348,-2.3342,-2.334,-2.3329,-2.3329,-2.3328,-2.3328,0,0,0,0,0,0,0,-2.3481,-2.3478,-2.3444,-2.3437,-2.3434,-2.3425,-2.342,-2.3414,-2.3382,-2.3395,-2.3392,-2.3388,-2.3355,-2.3349,-2.3347,-2.3339,-2.3329,-2.3329,-2.3328,-2.3328,-2.3347,-2.3348,0,0,0,0,0,0,-2.3487,-2.348,-2.3445,-2.3442,-2.3454,-2.3425,-2.3419,-2.3412,-2.3382,-2.3377,-2.3389,-2.3386,-2.3351,-2.3348,-2.3345,-2.3361,-2.3328,-2.3328,-2.3327,-2.3346,-2.3347,-2.3348,0,0,0,0,0,0,-2.3488,-2.3484,-2.3447,-2.346,-2.3455,-2.3425,-2.3418,-2.3412,-2.3406,-2.3377,-2.3371,-2.3388,-2.335,-2.3347,-2.3346,-2.3358,-2.3327,-2.3326,-2.3345,-2.3346,-2.3348,-2.3389,0,0,0,0,0,0,-2.349,-2.3485,-2.3488,-2.3461,-2.3454,-2.3446,-2.3418,-2.3412,-2.3405,-2.3401,-2.3375,-2.337,-2.3349,-2.3347,-2.3345,-2.3357,-2.3326,-2.3343,-2.3345,-2.3347,-2.3386,-2.3392,-2.3396,0,0,0,0,0,-2.3492,-2.35,-2.3488,-2.3484,-2.3457,-2.3447,-2.3443,-2.3419,-2.3406,-2.3409,-2.3392,-2.3371,-2.3358,-2.3348,-2.3345,-2.3356,-2.3342,-2.3345,-2.3347,-2.3384,-2.3391,-2.3396,0,0,0,0,0,0,-2.3527,-2.3495,-2.3482,-2.3481,-2.3468,-2.344,-2.3443,-2.3426,-2.3415,-2.3412,-2.3383,-2.3378,-2.3381,-2.3369,-2.3358,-2.3369,-2.3348,-2.3349,-2.3377,-2.3383,-2.3388,-2.3391,-2.3325,0,0,0,0,0,-2.3536,-2.3529,-2.3502,-2.3504,-2.3498,-2.3473,-2.3467,-2.345,-2.3435,-2.3428,-2.341,-2.3397,-2.339,-2.3386,-2.3377,-2.3385,-2.3381,-2.3392,-2.3397,-2.3401,-2.3403,-2.3411,-2.3417,-2.3356,-2.3356,-2.3356,0,0,-2.3551,-2.3533,-2.3531,-2.3511,-2.3498,-2.3495,-2.3467,-2.3463,-2.3461,-2.3428,-2.3426,-2.3414,-2.3397,-2.3402,-2.3403,-2.3391,-2.342,-2.3404,-2.3408,-2.3407,-2.3414,-2.342,-2.3425,-2.3357,-2.3357,-2.3357,0,0,-2.3579,-2.3563,-2.3566,-2.3555,-2.3537,-2.352,-2.3522,-2.3498,-2.3489,-2.3487,-2.3464,-2.3462,-2.3449,-2.344,-2.3433,-2.3465,-2.3447,-2.3463,-2.3489,-2.3497,-2.3502,-2.3506,-2.352,-2.3525,-2.3465,-2.3465,-2.3465,0,-2.36,-2.3593,-2.3569,-2.3568,-2.3562,-2.3534,-2.3538,-2.3528,-2.3509,-2.3506,-2.3494,-2.3482,-2.3468,-2.3472,-2.3481,-2.3475,-2.3478,-2.3465,-2.3503,-2.3507,-2.3511,-2.3524,-2.3529,-2.3467,-2.3467,-2.3467,-2.3467,0,-2.3623,-2.3619,-2.3623,-2.3607,-2.3601,-2.3603,-2.3581,-2.3579,-2.3565,-2.3551,-2.3553,-2.3536,-2.3527,-2.3527,-2.3511,-2.3531,-2.3525,-2.3508,-2.3486,-2.3519,-2.3531,-2.3536,-2.3471,-2.347,-2.3469,-2.3469,0,0,-2.3667,-2.3642,-2.3644,-2.3638,-2.362,-2.3617,-2.3619,-2.3611,-2.3611,-2.36,-2.3604,-2.3597,-2.3584,-2.3577,-2.3561,-2.3568,-2.3599,-2.3551,-2.355,-2.3562,-2.3624,-2.3637,-2.3643,-2.3587,-2.3588,-2.3589,-2.3626,0,-2.3692,-2.3694,-2.3675,-2.3683,-2.3681,-2.3658,-2.3661,-2.3651,-2.364,-2.3638,-2.3626,-2.3623,-2.3604,-2.36,-2.3607,-2.3593,-2.3611,-2.359,-2.3592,-2.3592,-2.3597,-2.3649,-2.3661,-2.3697,-2.3631,-2.3631,-2.3632,0,-2.3719,-2.3713,-2.3721,-2.3708,-2.3706,-2.3709,-2.3703,-2.3701,-2.3692,-2.3683,-2.3679,-2.3662,-2.3667,-2.3647,-2.3655,-2.3642,-2.3642,-2.3636,-2.3637,-2.3636,-2.3614,-2.3651,-2.3708,-2.3714,-2.3638,-2.3638,-2.3637,0,-2.3754,-2.3747,-2.3753,-2.3748,-2.3732,-2.3735,-2.3729,-2.3718,-2.3717,-2.3712,-2.3711,-2.3707,-2.3705,-2.3704,-2.3688,-2.3674,-2.3699,-2.3677,-2.3695,-2.3695,-2.37,-2.37,-2.3759,-2.3699,-2.3699,-2.3699,-2.3698,0,-2.3784,-2.379,-2.3769,-2.3772,-2.378,-2.3761,-2.377,-2.3761,-2.3754,-2.3757,-2.3737,-2.3741,-2.3719,-2.3722,-2.371,-2.3721,-2.3719,-2.3714,-2.3711,-2.3716,-2.3718,-2.3716,-2.3714,-2.37,-2.37,-2.3699,-2.3699,0,-2.3822,-2.3807,-2.3812,-2.3798,-2.3795,-2.3802,-2.3791,-2.3795,-2.3785,-2.379,-2.379,-2.3774,-2.3777,-2.3762,-2.376,-2.3753,-2.377,-2.3762,-2.3774,-2.3772,-2.3791,-2.3791,-2.3852,-2.3861,-2.3794,-2.3795,-2.3795,0,-2.3842,-2.3847,-2.3835,-2.3837,-2.3832,-2.3833,-2.3833,-2.3816,-2.3817,-2.381,-2.3816,-2.3818,-2.3817,-2.3823,-2.3813,-2.3813,-2.3806,-2.3828,-2.3806,-2.3813,-2.3809,-2.381,-2.3812,-2.3832,-2.3833,-2.3834,-2.3834,0,-2.3879,-2.3874,-2.3873,-2.3873,-2.3873,-2.3872,-2.3868,-2.3871,-2.3854,-2.3856,-2.3859,-2.386,-2.3862,-2.3865,-2.3865,-2.386,-2.3846,-2.3842,-2.3847,-2.3852,-2.386,-2.3859,-2.3788,-2.384,-2.3839,-2.3839,-2.3839,-2.3838,-2.391,-2.3916,-2.391,-2.3912,-2.3909,-2.3909,-2.3913,-2.3906,-2.3909,-2.3909,-2.39,-2.3907,-2.3903,-2.3902,-2.3899,-2.3906,-2.3896,-2.3901,-2.3903,-2.3905,-2.391,-2.3859,-2.3905,-2.3905,-2.3905,-2.3905,-2.3905,0,-2.3949,-2.3945,-2.3948,-2.3946,-2.395,-2.3938,-2.3936,-2.394,-2.3946,-2.3944,-2.3946,-2.3953,-2.3958,-2.395,-2.3954,-2.3961,-2.3955,-2.3963,-2.3962,-2.3963,-2.3917,-2.3914,-2.3968,-2.3968,-2.3968,-2.3968,-2.3968,-2.3968,-2.3969,-2.3979,-2.3974,-2.3985,-2.3982,-2.3989,-2.3989,-2.399,-2.3989,-2.3998,-2.4003,-2.3998,-2.3996,-2.4,-2.4006,-2.4004,-2.4007,-2.4017,-2.4013,-2.3971,-2.3965,-2.3959,-2.3956,-2.4018,-2.4018,-2.4058,-2.4059,-2.4059]},{"header":{"parameterUnit":"m.s-1","parameterCategory":1,"la1":30.2991,"la2":30.254,"lo1":-89.0895,"lo2":-89.0444,"dy":0.0017,"dx":0.0017,"nx":28,"ny":28,"refTime":"2025-11-07T03:00:00:Z","depth":0,"parameterNumber":3,"parameterNumberName":"V-component_of_WINDS"},"data":[0,0,0,0,0,0,0,0,0,0,0,0,0,0,0,0,0,0,0,0,0,0,0,0,0,0,0,0,0,0,0,0,0,0,0,0,0,0,0,0,0,0,0,0,0,0,0,0,0,0,0,0,0,0,0,0,0,0,1.8989,1.8988,0,1.8901,1.89,1.8899,1.8934,1.8937,1.8939,1.8941,1.8842,1.8837,1.8833,0,0,0,0,0,0,0,0,0,0,0,0,0,1.918,1.9176,1.8989,1.8988,1.8986,1.8901,1.89,1.8898,1.8934,1.8937,1.8939,1.8942,1.8843,1.8838,1.8832,0,0,0,0,0,0,0,0,0,0,0,0,0,1.9094,1.9175,1.8989,1.8994,1.8994,1.8901,1.89,1.8898,1.8933,1.8937,1.894,1.8943,1.8845,1.8838,1.8831,1.8726,0,0,1.881,1.8807,0,0,0,0,0,0,0,0,1.9099,1.9087,1.8994,1.8994,1.8993,1.8932,1.8931,1.884,1.8933,1.8956,1.8941,1.8944,1.8869,1.886,1.8836,1.8721,1.8717,1.881,1.8806,1.8803,1.8801,0,0,0,0,0,0,0,1.9105,1.9091,1.8954,1.8993,1.8992,1.8998,1.899,1.8914,1.8895,1.8954,1.8957,1.8946,1.8869,1.8843,1.8834,1.8715,1.881,1.8804,1.88,1.8797,1.8509,1.8505,0,0,0,0,0,0,1.9112,1.9096,1.8956,1.8951,1.9055,1.8992,1.8983,1.8948,1.8896,1.8892,1.8944,1.8948,1.8853,1.8842,1.8831,1.8703,1.8803,1.8796,1.8792,1.8512,1.8508,1.8504,0,0,0,0,0,0,1.9116,1.9099,1.896,1.9024,1.9007,1.8986,1.8947,1.8945,1.8919,1.8889,1.8885,1.8921,1.8855,1.884,1.8752,1.8701,1.8793,1.8787,1.8516,1.8511,1.8506,1.8448,0,0,0,0,0,0,1.9122,1.9101,1.9062,1.9023,1.9003,1.8885,1.8943,1.8941,1.8908,1.8913,1.8866,1.8861,1.8856,1.8762,1.8745,1.8693,1.8781,1.8521,1.8514,1.8508,1.8454,1.8441,1.843,0,0,0,0,0,1.9128,1.9047,1.906,1.9043,1.8955,1.8882,1.887,1.8869,1.8904,1.8864,1.8844,1.8863,1.8709,1.8753,1.8734,1.8679,1.8524,1.8516,1.8508,1.846,1.8444,1.8431,0,0,0,0,0,0,1.9077,1.9042,1.9056,1.896,1.8924,1.8888,1.8837,1.8852,1.8803,1.8809,1.8807,1.8796,1.8705,1.8683,1.8732,1.8573,1.8621,1.8609,1.8591,1.8576,1.8564,1.8571,1.8776,0,0,0,0,0,1.9055,1.9002,1.8973,1.8891,1.8873,1.8858,1.8826,1.8829,1.879,1.8774,1.8748,1.8707,1.865,1.8612,1.8557,1.8452,1.8441,1.8404,1.8392,1.8383,1.8372,1.8314,1.8297,1.8478,1.8478,1.8478,0,0,1.9008,1.8983,1.8948,1.888,1.8853,1.8795,1.8845,1.8781,1.8737,1.8763,1.8679,1.8658,1.8613,1.8516,1.8471,1.8494,1.832,1.8372,1.8365,1.8359,1.8304,1.8287,1.8272,1.8473,1.8474,1.8474,0,0,1.8894,1.887,1.8799,1.8771,1.873,1.8721,1.8704,1.8666,1.8654,1.8571,1.8589,1.8535,1.8437,1.8404,1.8374,1.8248,1.8263,1.823,1.8166,1.811,1.8096,1.8083,1.8037,1.8021,1.8219,1.8219,1.8219,0,1.884,1.8756,1.876,1.8696,1.8665,1.8689,1.8616,1.8588,1.8529,1.8506,1.8534,1.8411,1.8382,1.8277,1.8247,1.8222,1.8201,1.8235,1.8098,1.8085,1.8073,1.803,1.8013,1.8216,1.8216,1.8216,1.8217,0,1.8692,1.8633,1.8581,1.8528,1.8491,1.8422,1.8414,1.8375,1.8381,1.8369,1.8282,1.8249,1.8188,1.8163,1.8167,1.8059,1.8074,1.81,1.8148,1.8052,1.8011,1.7995,1.821,1.8211,1.8213,1.8214,0,0,1.8541,1.8493,1.8473,1.845,1.8406,1.836,1.8292,1.8236,1.8202,1.8161,1.8103,1.802,1.8044,1.801,1.801,1.7961,1.7862,1.7992,1.7991,1.7968,1.774,1.7721,1.7701,1.7873,1.787,1.7867,1.7744,0,1.8423,1.8307,1.8309,1.8201,1.8146,1.8169,1.8109,1.8075,1.8062,1.8011,1.7995,1.7936,1.7972,1.7952,1.7905,1.7884,1.7816,1.7893,1.7816,1.7813,1.7826,1.768,1.7659,1.7544,1.7728,1.7725,1.7723,0,1.8269,1.8227,1.8114,1.808,1.8056,1.8003,1.7952,1.7905,1.7865,1.7859,1.7822,1.783,1.7759,1.781,1.7711,1.7763,1.7731,1.7717,1.7712,1.7704,1.7762,1.7667,1.7508,1.749,1.7698,1.77,1.7702,0,1.817,1.8084,1.8006,1.7985,1.7943,1.7905,1.7885,1.7849,1.7816,1.777,1.7748,1.7693,1.7662,1.7619,1.7611,1.7649,1.7511,1.7562,1.7501,1.7501,1.747,1.7472,1.7303,1.7451,1.7452,1.7452,1.7452,0,1.8037,1.7967,1.7961,1.7912,1.7834,1.7836,1.7757,1.774,1.7709,1.7655,1.7671,1.762,1.7613,1.756,1.7553,1.7471,1.7457,1.7448,1.7447,1.7446,1.7447,1.7425,1.7432,1.7447,1.7448,1.7449,1.745,0,1.7912,1.7906,1.7822,1.779,1.778,1.7724,1.7695,1.7648,1.7637,1.7569,1.7553,1.7534,1.7473,1.7461,1.7387,1.7383,1.7285,1.7292,1.7299,1.7299,1.724,1.7245,1.7049,1.7023,1.7189,1.7188,1.7187,0,1.7828,1.7775,1.7738,1.7706,1.7685,1.7631,1.7598,1.7597,1.7561,1.7514,1.7471,1.7412,1.7364,1.7264,1.7242,1.7185,1.719,1.7126,1.7181,1.7183,1.7188,1.7191,1.7185,1.7114,1.7112,1.7111,1.711,0,1.7678,1.7678,1.7631,1.7582,1.7543,1.7504,1.7467,1.7438,1.7433,1.7391,1.733,1.7293,1.7219,1.7159,1.7103,1.708,1.7092,1.7093,1.7076,1.7074,1.708,1.7075,1.7269,1.7097,1.7098,1.7099,1.71,1.71,1.757,1.7524,1.7492,1.7439,1.7412,1.7377,1.7332,1.7316,1.7266,1.7208,1.721,1.7142,1.7104,1.7031,1.7004,1.6949,1.6969,1.6945,1.6938,1.6932,1.6926,1.709,1.6939,1.6939,1.6939,1.694,1.694,0,1.7421,1.7402,1.7353,1.7303,1.726,1.728,1.724,1.7203,1.7144,1.7109,1.7063,1.6992,1.6934,1.6908,1.6851,1.6812,1.6816,1.6796,1.6799,1.6793,1.6912,1.6932,1.6794,1.6794,1.6794,1.6794,1.6794,1.6794,1.7338,1.7262,1.7258,1.7167,1.7148,1.7084,1.706,1.7027,1.6999,1.6921,1.6874,1.6859,1.6827,1.6767,1.6714,1.6708,1.6685,1.6662,1.6659,1.677,1.6784,1.6799,1.6818,1.6658,1.6658,1.6544,1.6543,1.6543]}]]